Всё
Scott Muni Airport (Oneida, TN) SCX Погода
|
Oneida, TN (KSCX)
Безоблачно
Тихий ветер |
|
22 °C |
There is no TAF data available at SCX or any nearby airports.
Недавняя история METAR для SCX
| Date | Time (EDT) | Flight Rules | Wind Dir. | Speed | Type | Height AGL (ft) | Visibility | Temp (°C) | Temp (°F) | Dew Point (°C) | Dew Point (°F) | Rel. Humid. | Pressure | Density Altitude | Remarks |
|---|---|---|---|---|---|---|---|---|---|---|---|---|---|---|---|
| 06-сен | 03:15 | VFR | Calm | 6 miles |
22° | 71° | 22° | 71° | 100% | 29.93 in Hg | 2,612 ft | Mist | |||
| 06-сен | 02:55 | VFR | Calm | 7 miles |
22° | 71° | 22° | 71° | 100% | 29.93 in Hg | 2,612 ft | ||||
| 06-сен | 02:15 | VFR | Calm | 10 miles | 23° | 73° | 23° | 73° | 100% | 29.94 in Hg | 2,722 ft | ||||
| 06-сен | 01:55 | VFR | Calm | 10 miles | 23° | 73° | 23° | 73° | 100% | 29.95 in Hg | 2,712 ft | ||||
| 06-сен | 01:35 | VFR | Calm | 10 miles | 23° | 73° | 23° | 73° | 100% | 29.95 in Hg | 2,712 ft | ||||
| 06-сен | 01:15 | VFR | 280° | 3 kt | 10 miles | 23° | 73° | 23° | 73° | 100% | 29.96 in Hg | 2,702 ft | |||
| 06-сен | 00:55 | VFR | Calm | 10 miles | 23° | 73° | 23° | 73° | 100% | 29.96 in Hg | 2,702 ft | ||||
| 06-сен | 00:15 | VFR | Calm | 10 miles | 23° | 73° | 22° | 71° | 94% | 29.96 in Hg | 2,702 ft | ||||
| 05-сен | 23:55 | VFR | Calm | 10 miles | 23° | 73° | 22° | 71° | 94% | 29.96 in Hg | 2,702 ft | ||||
| 05-сен | 23:35 | VFR | Calm | 10 miles | 23° | 73° | 22° | 71° | 94% | 29.96 in Hg | 2,702 ft | ||||
| 05-сен | 23:15 | VFR | Calm | 10 miles | 23° | 73° | 22° | 71° | 94% | 29.95 in Hg | 2,712 ft | ||||
| 05-сен | 22:55 | VFR | Calm | 10 miles | 24° | 75° | 22° | 71° | 89% | 29.95 in Hg | 2,832 ft | ||||
| 05-сен | 22:35 | VFR | Calm | 10 miles | 24° | 75° | 22° | 71° | 89% | 29.95 in Hg | 2,832 ft | ||||
| 05-сен | 22:15 | VFR | Calm | 10 miles | 24° | 75° | 21° | 69° | 83% | 29.94 in Hg | 2,842 ft | ||||
| 05-сен | 21:55 | VFR | Calm | 10 miles | 24° | 75° | 21° | 69° | 83% | 29.93 in Hg | 2,852 ft | ||||
| 05-сен | 21:35 | VFR | Calm | 10 miles | 26° | 78° | 21° | 69° | 74% | 29.94 in Hg | 3,082 ft | ||||
| 05-сен | 21:15 | VFR | Calm | 10 miles | 26° | 78° | 21° | 69° | 74% | 29.93 in Hg | 3,092 ft | ||||
| 05-сен | 20:55 | VFR | Calm | 10 miles | 27° | 80° | 21° | 69° | 70% | 29.93 in Hg | 3,212 ft | ||||
| 05-сен | 20:15 | VFR | 310° | 5 kt | 10 miles | 29° | 84° | 22° | 71° | 66% | 29.93 in Hg | 3,452 ft | |||
| 05-сен | 19:55 | VFR | Calm | 10 miles | 30° | 86° | 21° | 69° | 59% | 29.93 in Hg | 3,572 ft | ||||
| 05-сен | 19:15 | VFR | 330° | 4 kt | 10 miles | 32° | 89° | 21° | 69° | 52% | 29.93 in Hg | 3,812 ft | |||
| 05-сен | 18:55 | VFR | 350° | 5 kt | 10 miles | 32° | 89° | 21° | 69° | 52% | 29.93 in Hg | 3,812 ft | |||
| 05-сен | 18:15 | VFR | Variable | 5 kt | 10 miles | 32° | 89° | 21° | 69° | 52% | 29.92 in Hg | 3,822 ft | |||
| 05-сен | 17:55 | VFR | 360° | 6 kt | 10 miles | 33° | 91° | 21° | 69° | 49% | 29.92 in Hg | 3,942 ft |
Вход
| Ваш браузер не поддерживается.. обновите веб-браузер |
